Content
SEND FEEDBACK

Daily
Averages
Monthly
Summary
United States of America

ORANGE, TEXAS


Home > North America > United States > Texas
Elevation: 1 foot     Latitude: 30 07N     Longitude: 093 47W

WEATHER
 
SELECT A DAY
Number of Records: 107,284;   Date Range: 8/25/05 - 7/6/14
 
SHARE

PRINT THIS DATA

[ ← Previous Day ]
WEATHER ALMANAC - OCTOBER 28, 2013
[ Next Day → ]
[ °C ]   °F
Weather ElementAverageHighLow
Temperature69.6 °F81.7 °F (4:15 pm)58.6 °F (3:15 am)
Dewpoint65.2 °F70 °F (10:35 pm)58.3 °F (3:15 am)
Humidity87.1 %99 % (12:55 am)63 % (4:15 pm)
Barometer30.11 in30.17 in (11:15 am)30.05 in (1:55 am)
Wind Speed3.7 mph10.4 mph (4:55 pm)
Weather ElementAverage
Visibility7.6 mi
Wind DirectionENE (66.2 °)

Weather ElementTotal
Precipitation---
Cooling Degree Days5.2 (Base 65)
Growing Degree Days20.2 (Base 50)
Averaged from 71 records on October 28, 2013
WEATHER CONDITIONS BREAKOUT
WIND DIRECTION BREAKOUT
WEATHER BY HOUR - OCTOBER 28, 2013
[ °C ]   °F
Local TimeTemperatureDewpointHumidityBarometerVisibilityWind DirectionWind SpeedGust SpeedPrecipitationEventsConditions
12:35 AM60.8 °F60.3 °F98 %30.07 in3.0 miCalmOvercast
12:55 AM60.4 °F60.1 °F99 %30.06 in7.0 miCalmMostly Cloudy
1:15 AM61.0 °F60.8 °F99 %30.06 in1.5 miCalmScattered Clouds
1:35 AM60.3 °F59.9 °F99 %30.06 in1.0 miCalmMist
1:55 AM59.5 °F59.2 °F99 %30.05 in1.0 miCalmMist
2:15 AM59.7 °F59.4 °F99 %30.05 in3.0 miCalmClear
2:35 AM59.4 °F59.0 °F99 %30.06 in1.2 miCalmMist
2:55 AM59.0 °F58.6 °F99 %30.06 in1.0 miCalmMist
3:15 AM58.6 °F58.3 °F99 %30.06 in0.8 miCalmMostly Cloudy
3:35 AM58.8 °F58.5 °F99 %30.06 in4.0 miCalmMostly Cloudy
3:55 AM59.0 °F58.6 °F99 %30.05 in2.5 miCalmMist
4:15 AM59.0 °F58.6 °F99 %30.06 in1.5 miCalmMist
4:35 AM58.6 °F58.3 °F99 %30.06 in4.0 miCalmMostly Cloudy
4:55 AM59.2 °F59.0 °F99 %30.06 in7.0 miCalmMostly Cloudy
5:15 AM59.9 °F59.5 °F99 %30.06 in5.0 miCalmMostly Cloudy
5:35 AM60.1 °F59.7 °F99 %30.07 in5.0 miCalmScattered Clouds
5:55 AM60.4 °F60.1 °F99 %30.07 in3.0 miCalmClear
6:15 AM60.1 °F59.9 °F99 %30.08 in1.0 miCalmMostly Cloudy
6:35 AM59.5 °F59.2 °F99 %30.08 in2.0 miCalmMist
6:55 AM59.2 °F58.8 °F99 %30.09 in4.0 miCalmScattered Clouds
7:15 AM59.0 °F58.6 °F99 %30.09 in4.0 miCalmScattered Clouds
7:35 AM59.4 °F59.0 °F99 %30.10 in1.0 miCalmMostly Cloudy
7:55 AM59.0 °F58.6 °F99 %30.10 in0.8 miCalmMist
8:15 AM60.3 °F59.9 °F99 %30.12 in2.0 miCalmClear
8:35 AM62.6 °F62.1 °F98 %30.12 in10.0 miCalmClear
8:55 AM64.6 °F64.4 °F99 %30.13 in10.0 miNE (50°)4.6 mphScattered Clouds
9:15 AM66.2 °F65.7 °F98 %30.14 in10.0 miNE (40°)4.6 mphScattered Clouds
9:35 AM67.5 °F66.9 °F98 %30.15 in10.0 miENE (60°)5.8 mphScattered Clouds
9:55 AM69.4 °F66.0 °F89 %30.15 in10.0 miENE (60°)6.9 mphClear
10:15 AM71.1 °F66.7 °F86 %30.16 in10.0 miNE (40°)6.9 mphClear
10:35 AM70.9 °F66.4 °F86 %30.16 in10.0 miNE (40°)5.8 mphClear
10:55 AM72.1 °F66.2 °F82 %30.16 in10.0 miNE (50°)6.9 mphScattered Clouds
11:15 AM72.9 °F66.6 °F81 %30.17 in10.0 miENE (60°)4.6 mphMostly Cloudy
11:35 AM74.8 °F66.6 °F75 %30.17 in10.0 miNE (50°)6.9 mphOvercast
11:55 AM75.2 °F66.9 °F75 %30.16 in10.0 miNE (50°)6.9 mphOvercast
12:15 PM77.4 °F67.3 °F71 %30.16 in10.0 miENE (70°)5.8 mphMostly Cloudy
12:35 PM78.1 °F67.6 °F70 %30.16 in10.0 miENE (60°)4.6 mphMostly Cloudy
12:55 PM78.4 °F68.2 °F71 %30.15 in10.0 miEast (90°)5.8 mphScattered Clouds
1:15 PM79.0 °F68.4 °F70 %30.13 in10.0 miENE (70°)4.6 mphScattered Clouds
1:35 PM78.8 °F68.4 °F70 %30.12 in10.0 miCalmMostly Cloudy
1:55 PM80.1 °F68.5 °F68 %30.11 in10.0 miSouth (180°)4.6 mphOvercast
2:15 PM79.3 °F69.1 °F71 %30.11 in10.0 miEast (100°)4.6 mphOvercast
2:35 PM81.5 °F69.4 °F67 %30.10 in10.0 miEast (100°)6.9 mphMostly Cloudy
2:55 PM81.1 °F69.4 °F67 %30.09 in10.0 miEast (90°)9.2 mphMostly Cloudy
3:15 PM80.8 °F69.6 °F69 %30.09 in10.0 miESE (120°)8.1 mphScattered Clouds
3:35 PM81.1 °F68.4 °F65 %30.09 in10.0 miESE (110°)6.9 mphClear
3:55 PM81.3 °F68.2 °F64 %30.09 in10.0 miSSE (160°)3.5 mphScattered Clouds
4:15 PM81.7 °F68.0 °F63 %30.09 in10.0 miSSE (160°)8.1 mphScattered Clouds
4:35 PM81.1 °F68.2 °F65 %30.09 in10.0 miSouth (170°)9.2 mphMostly Cloudy
4:55 PM80.6 °F68.9 °F67 %30.08 in10.0 miSSE (160°)10.4 mphScattered Clouds
5:15 PM79.9 °F68.9 °F69 %30.09 in10.0 miSSE (160°)8.1 mphScattered Clouds
5:35 PM78.3 °F68.5 °F72 %30.09 in10.0 miSSE (160°)8.1 mphScattered Clouds
5:55 PM77.0 °F68.4 °F75 %30.09 in10.0 miSSE (150°)4.6 mphScattered Clouds
6:15 PM76.1 °F68.5 °F77 %30.09 in10.0 miSSE (160°)5.8 mphScattered Clouds
6:35 PM75.2 °F68.9 °F81 %30.10 in10.0 miSE (140°)3.5 mphScattered Clouds
6:55 PM74.3 °F68.9 °F83 %30.11 in10.0 miSE (140°)3.5 mphMostly Cloudy
7:15 PM73.6 °F69.3 °F86 %30.11 in10.0 miSE (130°)3.5 mphOvercast
7:35 PM73.4 °F68.9 °F86 %30.11 in10.0 miSE (130°)3.5 mphOvercast
7:55 PM73.0 °F68.9 °F87 %30.12 in10.0 miSE (130°)3.5 mphMostly Cloudy
8:15 PM72.7 °F69.1 °F88 %30.12 in10.0 miESE (110°)4.6 mphScattered Clouds
8:35 PM72.9 °F69.6 °F90 %30.13 in10.0 miESE (110°)4.6 mphClear
8:55 PM72.9 °F69.8 °F90 %30.13 in10.0 miESE (110°)5.8 mphClear
9:15 PM72.7 °F69.4 °F90 %30.14 in10.0 miESE (110°)6.9 mphClear
9:35 PM72.3 °F69.6 °F91 %30.14 in10.0 miESE (110°)6.9 mphClear
9:55 PM72.1 °F69.8 °F92 %30.14 in10.0 miEast (90°)4.6 mphClear
10:15 PM71.6 °F69.8 °F94 %30.15 in10.0 miEast (100°)5.8 mphClear
10:35 PM71.6 °F70.0 °F95 %30.15 in10.0 miEast (90°)4.6 mphClear
10:55 PM71.6 °F69.8 °F94 %30.15 in10.0 miEast (100°)5.8 mphClear
11:15 PM71.6 °F69.8 °F94 %30.15 in10.0 miESE (110°)5.8 mphClear
11:35 PM71.6 °F69.8 °F94 %30.15 in10.0 miESE (110°)5.8 mphClear
11:55 PM71.6 °F69.8 °F94 %30.15 in10.0 miESE (110°)6.9 mphClear
Hourly data recorded from KORG, located miles away from Orange, Texas







STORIES FROM OUR PARTNERS